CAPE
0 0 0 0 0 0 0 0 0 0 0 0 0 0 0 0 0 0 0 0 0 0 0 0 0 0 0 1 0 0 12 40 35 18 13 549 856 1258 1557 1365 1448 1346 1263 1455 1736 1737 1345 1398 1508 1621 1610 1673 1325 1621 1575 1568 1727 1508 1409 1593 1535 1488 1579 1441 1337 1400 1391 1350 1577 1700 1619 1614 1758 1899 1724 1478 1281 800 682 839 1143 1960 2171 2225 2382 2448
0 0 0 0 0 0 0 0 0 0 0 0 0 0 0 0 0 0 0 0 0 0 0 0 0 0 0 0 0 0 0 18 12 15 18 46 703 1200 1487 1329 1368 1452 1240 1555 1883 1814 1509 1865 1619 1873 1756 1778 1772 1761 1736 1810 1788 1728 1555 1624 1620 1719 1744 1628 1489 1292 1431 1535 1597 1725 1724 1529 1498 1842 1871 1678 1395 1202 950 1186 1399 2152 2210 2226 2407 2406
0 0 0 0 0 0 0 0 0 0 0 0 0 0 0 0 0 0 0 0 0 0 0 0 0 0 0 0 0 2 0 2 13 16 12 44 399 949 1068 1362 1449 1430 1646 1910 2038 1813 1961 1314 1823 1998 1934 1928 1931 1948 1839 1893 1871 1936 1876 1896 2096 1801 1660 1728 1720 1724 1582 1624 1527 1486 1464 1242 992 1242 1554 1450 1466 1264 741 1029 1557 1951 2354 2260 2404 2515
0 0 0 0 0 0 0 0 0 0 0 0 0 0 0 0 0 0 0 0 0 0 0 0 0 0 0 0 0 0 0 0 5 25 15 14 203 849 1210 1488 1528 1407 1987 1565 2095 1939 2047 2073 2169 2147 2104 1956 1961 2018 1892 1878 1899 1864 1982 1966 2040 2086 1992 1998 2056 1942 1782 1792 1727 1682 1605 1382 951 924 1280 1339 1240 1229 852 786 1492 2145 2532 2424 2424 2432
0 0 0 0 0 0 0 0 0 0 0 0 0 0 0 0 0 0 0 0 0 0 0 0 0 0 0 0 0 0 0 0 0 40 20 3 117 542 1535 1239 1264 1108 1192 1593 2154 2031 2221 2122 2239 2419 2294 2155 1998 1964 1923 1939 1926 1778 1933 2070 2355 2332 2096 2180 2232 2017 2186 2204 2128 2030 1942 1722 1563 1021 1124 1420 1242 1339 1403 893 1398 2275 2712 2700 2293 2131
0 0 0 0 0 0 0 0 0 0 0 0 0 0 0 0 0 0 0 1 1 0 0 0 0 0 0 0 0 0 0 0 0 32 18 6 45 516 592 993 789 987 1641 1654 2363 2229 2148 2164 2439 2573 2406 2228 2161 2143 2054 2016 1891 1928 2016 2135 2404 2481 2400 2168 2316 2289 2401 2219 2344 2252 2204 1916 1676 1534 1247 1507 1289 1248 1549 1451 1031 2020 2591 2459 2363 2128
0 0 0 0 0 0 0 0 0 0 0 0 0 0 0 0 0 0 0 0 0 0 0 0 0 0 0 0 0 0 0 0 0 7 4 12 138 557 859 758 987 686 965 1583 2413 2330 2159 2222 2380 2605 2590 2334 2236 2232 2007 2057 2134 2253 2236 2329 2399 2493 2585 2342 2254 2500 2480 2512 2473 2407 2360 2229 1967 1858 1691 1964 1869 1579 1583 1647 1178 1384 2257 2656 2439 1964
0 0 0 0 0 0 0 0 0 0 0 0 0 0 0 0 0 0 0 0 0 0 0 0 0 0 0 0 0 0 0 4 3 0 0 2 304 371 960 783 1427 1544 1580 1314 1791 2499 2302 2328 2327 2547 2663 2503 2389 2430 2503 2444 2587 2674 2802 2608 2586 2571 2654 2785 2722 2608 2600 2599 2613 2590 2606 2514 2207 2050 2161 2242 2394 1989 1625 1562 1311 981 1587 2533 2768 1937
0 0 0 0 0 0 0 0 0 0 0 0 0 0 0 0 0 0 0 0 0 0 0 0 1 0 0 0 0 0 0 2 10 173 162 127 365 481 703 1053 933 1344 863 1906 2466 2456 2318 2338 2314 2628 2884 2748 2452 2425 2415 2342 2452 2637 2815 2910 2722 2654 2768 2877 2826 2922 2770 2790 2639 2646 2663 2668 2358 2392 2133 1989 2075 2136 1994 1738 1768 1544 1246 2225 3016 2565
0 0 0 0 0 0 0 0 0 0 0 0 0 0 0 0 0 0 0 0 0 0 0 0 0 0 0 0 0 0 0 0 17 62 234 325 248 752 606 995 1314 1370 1319 2134 2555 2582 2366 2388 2588 2724 2971 2935 2597 2596 2554 2426 2331 2523 2801 2926 3021 3032 3054 2851 2895 2919 2995 2752 2768 2814 2826 2673 2728 2441 2076 1637 1959 2327 2353 2251 2355 2297 2280 1705 2938 2965
0 0 0 0 0 0 0 0 0 0 0 0 0 0 0 0 0 0 0 0 0 0 0 0 0 0 3 2 0 0 0 4 33 18 212 503 367 492 605 598 1052 1527 1963 2217 2578 2648 2592 2561 2671 2785 3004 3020 2690 2562 2672 2674 2489 2510 2669 2836 3134 3277 3070 3005 3154 3152 3023 2986 2800 2984 3041 2814 2829 2584 1995 1873 2015 2590 2633 2612 2645 2840 2722 2367 2318 2803
0 0 0 0 0 0 0 0 0 0 0 0 0 0 0 0 0 0 0 0 0 0 0 0 0 0 0 0 0 0 6 0 0 3 159 452 322 444 696 558 809 1294 1870 2101 2382 2646 2681 2684 2826 2834 3107 3214 2883 2679 2567 2494 2450 2623 2748 2848 3228 3319 3272 3072 3069 3184 3174 2989 2847 2843 3210 3145 2989 2667 2071 2091 2146 2588 3192 2901 2943 3012 3001 2981 2434 2644
0 0 0 0 0 0 0 0 0 0 0 0 0 0 0 0 0 0 0 0 0 0 0 0 0 0 0 0 0 0 0 0 0 0 0 6 32 268 431 736 617 884 1520 1973 2218 2508 2745 2833 2788 2712 3061 3276 3090 2683 2635 2500 2538 2928 3234 3329 3459 3573 3496 3514 3397 3493 3415 3405 3144 3076 3169 3148 2983 2786 2466 2313 2282 2484 3344 3463 3367 3382 3109 3240 3059 2523
0 0 0 0 0 0 0 0 0 0 0 0 0 0 0 0 0 0 0 0 0 0 0 0 0 0 0 0 0 0 0 0 0 0 0 1 0 248 546 575 266 558 1277 1938 2060 2308 2759 2940 2929 2976 2948 3241 3150 2773 2689 2725 2845 3106 3372 3772 3834 3941 3952 3574 3520 3466 3529 3539 3375 3264 3152 3210 3067 2864 2728 2629 2581 2410 3061 3530 3658 3301 2911 3057 3204 2726
0 0 0 0 0 0 0 0 0 0 0 0 0 0 0 0 0 0 0 0 0 0 0 0 0 0 0 0 0 0 0 0 0 0 0 0 0 12 545 209 0 456 1119 1856 2108 2189 2453 2909 3054 3010 3032 3177 3134 2780 2807 2813 2924 3330 3612 3972 4102 4261 4192 4073 3840 3823 3708 3546 3580 3343 3270 3136 3222 3131 2796 2799 2798 2741 2810 3174 3569 3527 2755 2590 2932 2980
0 0 0 0 0 0 0 0 0 0 0 0 0 0 0 0 0 0 0 0 0 0 0 0 0 0 0 0 0 0 0 0 0 0 0 0 0 0 498 646 350 229 670 1371 1948 2262 2377 2955 3241 2968 2985 3159 3346 3179 2911 3048 3190 3441 3691 4112 4342 4452 4442 4339 4121 3980 3831 3564 3241 3476 3664 3399 3369 3375 3226 3197 3140 3110 2899 3089 3304 3522 3342 2472 2475 2951
0 0 0 0 0 0 0 0 0 0 0 0 0 0 0 0 0 0 0 0 0 0 0 0 0 0 0 0 0 0 0 0 0 0 0 0 0 0 0 199 276 84 334 529 734 2262 2514 2709 3208 3169 3173 3225 3331 3260 3045 3259 3296 3534 3806 4126 4414 4658 4648 4492 4398 4126 3887 3645 3674 3604 3682 3543 3478 3578 3440 3294 3302 2954 3010 3135 3260 3260 3386 2954 2388 2557
0 0 0 0 0 0 0 0 0 0 0 0 0 0 0 0 0 0 0 0 0 0 0 0 0 0 0 0 0 0 0 0 0 0 0 0 0 0 0 70 38 0 18 225 819 2341 2542 2733 3212 3274 3208 3123 3310 3438 3292 3528 3542 3719 3879 4127 4484 4657 4782 4548 4367 3875 3719 3718 3690 3672 3557 3748 3857 3504 3426 3344 3355 3215 3058 3183 3349 3309 3278 3367 2804 2278
0 0 0 0 0 0 0 0 0 0 0 0 0 0 0 0 0 0 0 0 0 0 0 0 0 0 0 0 0 0 0 0 0 0 0 0 0 0 0 0 84 86 66 267 631 2102 2628 2653 3052 3395 3280 3239 3396 3656 3615 3507 3451 3504 3805 4091 4304 4452 4550 4456 4021 3709 3748 3748 3640 3686 3703 3791 3874 3762 3578 3368 3580 3633 3184 3190 3353 3529 3407 3313 3248 2827
0 0 0 0 0 0 0 0 0 0 0 0 0 0 0 0 0 0 0 0 0 0 0 0 0 0 0 0 0 0 0 0 0 0 0 0 0 0 0 0 0 19 107 100 259 1241 2658 2786 2926 3165 3242 3197 3311 3508 3510 3481 3496 3516 3772 3904 4056 4173 4386 4371 4020 3922 3936 3811 3657 3613 3687 3641 3713 3799 3628 3834 3724 3328 3472 3547 3476 3597 3304 3181 3147 3091
0 0 1 0 0 0 0 0 0 0 0 0 0 0 0 0 0 0 0 0 0 0 0 0 0 0 0 0 0 0 0 0 0 0 0 0 0 0 0 0 0 0 36 57 232 625 2334 2888 2718 2977 3110 3030 3214 3533 3547 3461 3436 3296 3431 3590 3735 4066 4137 4110 3964 4041 4185 3827 3783 3673 3656 3491 3702 3717 3788 3877 3476 3535 3788 3796 3590 3607 3478 3221 3114 3166
0 0 0 0 0 0 0 0 0 0 0 0 0 0 0 0 0 0 0 0 0 0 0 0 0 0 0 0 0 0 0 0 0 0 0 0 0 0 0 0 0 130 148 103 333 866 2345 2923 2751 2780 2999 2981 3029 3338 3462 3412 3512 3455 3327 3481 3472 3582 3842 3715 3840 4086 4261 4024 3670 3430 3624 3525 3675 3727 3851 3732 3629 3825 3754 3744 3769 3689 3595 3157 3264 3112
0 0 0 0 0 0 0 0 0 0 0 0 0 0 0 0 0 0 0 0 0 0 0 0 0 0 0 0 0 0 0 0 0 0 0 0 0 0 0 0 1 72 152 141 177 513 673 2119 2695 2597 2986 3034 2959 3191 3413 3428 3379 3284 3210 3286 3323 3164 3470 3316 3533 3774 4236 4160 3995 3847 3766 3648 3818 3990 3791 3617 3341 3510 3478 3830 3941 3733 3521 3326 3016 3439
0 0 0 0 0 0 0 0 0 0 0 0 0 0 0 0 0 0 0 0 0 0 0 0 0 0 0 0 0 0 0 0 0 0 0 0 0 0 0 0 8 21 168 27 112 156 323 1585 2618 2960 2965 3192 3090 3156 3352 3439 3419 3358 3264 3204 3209 3141 3252 3055 3016 3361 4118 4126 3943 3879 3788 3787 3710 3659 3482 3354 3241 3344 3350 3388 3712 3856 3480 3200 2957 3194
0 0 0 0 0 0 0 0 0 0 0 0 0 0 0 0 0 0 0 0 0 0 0 0 0 0 0 0 0 0 0 0 0 0 0 0 0 0 0 0 631 776 722 393 592 858 903 1176 2650 3374 3213 3986 3790 2868 3288 3338 3264 3291 3304 3191 3096 3038 2924 3020 2938 3083 3768 3968 3747 3669 3784 3676 3621 3583 3597 3325 3150 3282 3238 3037 3087 3486 3513 3350 2894 2692
0 0 0 0 0 0 0 0 0 0 0 0 0 0 0 0 0 0 0 0 0 22 0 0 0 0 0 0 0 0 0 0 0 0 0 0 0 0 11 228 633 1093 1438 779 728 802 970 1923 3120 4017 3801 4119 3227 2823 3327 3713 3244 3148 3097 3192 3036 2984 2889 2910 2926 2878 3370 3796 3584 3628 3580 3784 3348 3330 3566 3538 3248 3111 3085 2849 2506 2890 3354 3367 3153 2857
0 0 0 0 0 0 53 735 0 0 0 0 0 0 0 0 0 0 0 0 0 0 0 0 0 0 12 0 0 0 0 0 0 0 0 0 0 38 122 158 176 973 1574 1430 1488 1329 1719 2408 2758 3462 3713 3114 2873 2779 2785 2882 3050 2930 3195 3185 2929 2732 2714 3002 3001 3037 3178 3614 3442 3579 3493 3597 3386 3424 3449 3725 3407 3140 3014 2656 2361 2317 2754 3310 3211 2997
0 0 0 0 0 28 0 0 0 0 0 0 0 0 0 0 0 0 0 0 0 0 0 0 2 18 0 0 0 0 0 0 0 0 4 4 6 28 0 0 24 1102 1406 1621 1786 1838 2110 2244 2499 3273 3735 3118 2771 2834 2634 2629 2701 2880 2964 2896 2826 2682 2768 2924 3067 3109 3317 3624 3685 3706 3688 3563 3762 3812 3858 3878 3993 3679 3102 2936 2634 2475 2542 3221 3469 3241
0 0 0 0 0 0 4 0 0 0 0 0 0 0 0 0 0 0 0 0 0 0 0 8 40 35 38 0 0 0 0 0 0 0 0 5 1 0 0 0 0 4 603 1417 2024 2462 2614 2554 2948 3013 3368 3268 2866 2819 2714 2574 2562 2864 2887 2738 2881 2630 2552 2785 3036 3176 3198 3554 3888 4051 4042 4151 3904 4056 4040 3869 4262 4031 3548 3462 3500 3330 3077 3631 3622 3492
0 0 0 0 0 0 0 0 0 0 0 0 0 0 0 0 0 0 0 0 0 0 0 32 0 1 34 0 0 0 0 0 0 0 0 0 0 0 0 0 0 0 0 413 1926 2812 2971 3043 3324 3418 3559 3934 3125 3073 2736 2709 2930 2621 2666 2691 2600 2678 2404 2678 3086 3420 3220 3387 3835 4049 4246 4701 4487 4424 4357 4078 4415 4633 4274 3514 3592 3423 3739 3649 3524 3772
0 0 0 0 0 0 0 0 0 0 0 0 0 0 0 0 0 0 0 0 0 0 0 0 20 0 0 1 0 0 0 0 0 0 0 0 0 0 0 0 0 0 0 0 682 2691 3088 2902 3289 4030 4115 4378 3945 3230 2964 2926 2804 2634 2468 2514 2519 2629 2406 2331 3384 3064 3231 3564 3751 4102 4580 4664 4542 4578 4624 4475 4233 4471 4630 4270 3666 3788 4085 3879 3651 3952
0 2 0 0 0 0 0 0 0 0 0 0 0 0 0 0 0 0 0 0 0 0 0 0 122 139 80 25 0 0 0 0 0 0 0 0 0 0 0 0 0 0 0 0 0 6 3530 2582 2894 3845 4016 3778 3991 3636 3120 3297 2935 2763 2450 2363 2390 2367 2293 2283 2600 2917 3623 3404 4014 4720 4796 4672 4667 4698 4800 4749 4530 4539 4667 4422 4082 3991 3961 3717 3554 4038
0 0 0 0 0 0 0 0 0 0 0 0 0 0 0 0 0 0 0 0 0 0 0 0 28 54 89 44 2 0 0 0 0 0 0 0 0 0 0 0 0 0 0 0 0 0 0 610 3299 3443 2671 2275 2511 2847 2832 2945 2666 2957 2774 2631 2372 2466 2380 2252 2294 2854 4019 3602 3997 4543 4819 4890 4752 4798 4844 4946 4801 4624 4708 4624 4298 4004 3822 3773 3762 3543
0 0 0 0 0 0 0 0 0 0 0 0 0 0 0 0 0 0 0 0 0 0 0 0 0 0 0 0 0 0 0 0 0 0 0 0 0 0 0 0 8 40 7 0 0 2 52 97 299 707 666 1462 1658 978 1708 2802 2335 2556 2590 2361 2464 2460 2847 2765 2477 2909 3635 4192 4429 4728 4786 5111 4963 4966 5097 5220 5044 4750 4678 4617 4448 4111 3938 3953 3991 3854
0 0 0 0 0 0 0 0 0 0 0 0 0 0 0 0 0 0 0 0 0 0 0 0 0 0 0 0 0 0 0 0 0 0 0 0 0 0 1 8 66 74 72 21 65 1053 3866 3457 3174 2560 2521 1826 674 434 992 1185 2318 2535 2392 2470 2435 2636 3888 3803 3610 3751 4108 4290 4427 4686 4780 5197 5168 5274 5276 5335 5222 5023 4793 4781 4751 4403 4003 3841 4017 4035
0 0 0 0 0 0 3 0 0 0 0 0 0 0 0 0 0 0 0 0 0 0 0 0 0 0 0 0 0 0 6 0 2 142 106 9 0 0 0 0 0 0 0 3 908 2214 2372 2684 3230 2247 1945 3081 2394 1327 988 847 1031 1973 2454 2432 2443 2604 3182 3990 4106 3716 4187 4302 4212 4371 4684 5119 5344 5359 5367 5300 5368 5130 4937 4892 4952 4728 4340 4064 3918 4069
0 0 0 0 0 0 0 6 0 4 0 0 0 0 0 0 0 0 0 0 0 0 0 0 0 0 0 2 5 72 256 499 680 467 38 0 0 0 0 0 0 0 217 1098 1289 1835 3286 3574 3179 3139 3468 3310 2926 1690 1017 818 839 1141 1960 2474 2463 3095 2851 3208 3825 3597 4251 4396 4235 4269 4663 5077 5329 5362 5357 5371 5363 5238 4983 4972 5082 4995 4618 4277 4078 4099
0 0 4 0 5 0 0 5 5 4 0 0 0 0 0 0 0 0 0 0 0 0 0 7 225 459 347 177 75 340 1203 493 78 0 0 46 1167 1628 2215 2521 2407 2130 2042 2840 3071 2871 3056 3457 4279 4323 4392 4174 3913 3234 2560 1708 1273 1611 2501 2630 2718 2667 2783 3076 3329 3483 3945 3758 4341 4464 4791 5235 5411 5490 5400 5348 5376 5374 5089 4914 4973 4984 4771 4421 4178 3934
0 0 1 3 1 1 2 3 8 5 0 10 7 0 2 2 2 0 0 0 0 0 21 106 54 6 0 85 185 1277 811 79 0 0 2636 2046 1603 1992 2216 2862 2404 2578 2405 2406 2446 2464 3425 4102 4363 3965 3473 3324 2577 3319 3763 3528 2470 2020 2585 2992 2871 2971 3057 3192 3299 3426 3466 3588 4337 4963 4998 5199 5355 5489 5470 5507 5489 5380 5201 4886 4940 4913 4753 4533 4329 4079
0 0 0 0 10 10 7 4 8 8 26 6 4 3 2 16 4 13 0 0 134 6 30 28 3 158 613 1295 1464 1196 478 0 0 283 1637 1527 1282 1836 2437 2856 2594 2428 2174 1847 2009 3566 3389 3380 4147 4604 4332 3893 4447 4182 3621 3361 3076 2737 2678 2816 2741 2785 2975 3189 3367 3545 3583 3676 4040 4811 5021 5085 5554 5536 5504 5451 5430 5361 5252 4994 4790 4821 4674 4564 4385 4145
0 0 0 0 0 3 6 3 4 10 1 4 7 10 2 5 0 31 0 592 198 100 210 10 160 224 627 761 1016 652 802 732 769 1129 1162 1424 1210 1596 1939 2094 2337 2207 2219 2450 3007 3321 3182 3462 4166 4179 3728 4279 4557 4525 4228 3870 3047 2857 2989 3043 3061 2893 2973 3253 3474 3814 4191 4131 3849 4267 5078 5113 5240 5372 5464 5482 5411 5053 4831 4876 4697 4602 4698 4510 4324 4233
0 0 0 0 0 1 3 1 1 12 14 0 6 23 7 0 2 5 54 23 429 345 275 120 244 473 757 956 1002 989 957 738 754 748 928 1167 1271 1410 1564 1748 1995 2230 1940 2680 3114 3540 3602 3429 4207 4076 3930 4081 3634 3880 3408 3563 3684 3196 3155 3064 3016 3037 2957 3431 3797 3916 4158 4332 4152 4162 4711 5071 5202 5412 5413 5364 5248 5105 4852 4778 4684 4596 4562 4415 4444 4449
0 0 0 0 0 0 5 9 2 0 81 14 14 0 10 1 109 61 52 22 12 4 0 20 66 513 794 906 798 840 889 864 958 952 957 1175 1378 1494 1573 1689 1990 2043 2326 2652 2964 3120 2718 3236 3660 3671 3782 3633 4114 4506 4892 3414 3663 3602 3475 3476 3461 3200 3088 3190 3757 4176 4306 4470 4421 4573 4466 4836 5095 5214 5203 5124 5043 5078 4840 4748 4617 4739 4783 4818 4716 4690
68 14 5 0 0 0 0 7 10 12 5 5 52 15 70 56 0 0 1 8 14 17 89 155 8 328 748 726 806 741 742 826 929 1002 994 1068 1220 1498 1623 1785 2106 2420 2374 2453 2665 2770 2529 3197 3546 3716 3835 3554 3814 4474 5055 4910 3856 3970 4018 4122 4162 3858 3591 3448 3794 4420 4357 4338 4427 4388 4233 4449 4818 5069 5023 5054 5010 5116 5148 4865 4686 4868 4951 4948 4766 4596
0 47 137 11 183 63 1 0 87 8 12 0 0 0 2 1 0 0 0 14 80 28 39 138 152 335 594 527 531 603 677 783 846 878 950 1008 1036 1162 1519 1719 1952 2062 2068 2301 2497 2445 2701 2996 3047 3175 3259 3271 3655 3992 4565 5118 5012 4488 5143 5492 5182 5093 4846 3919 3768 4319 4652 4716 4696 4636 4345 4387 4848 5044 5096 5081 5039 5062 5079 4992 4863 4770 4811 4924 4554 4488
30 3 21 6 3 2 0 0 9 6 8 14 0 0 0 0 0 0 0 0 9 0 0 40 103 379 514 548 432 538 727 988 932 823 860 1020 847 1155 1424 1622 1745 1964 2091 2245 2466 2382 2727 2566 2532 2868 2661 2946 3204 3443 3665 3953 4260 4496 4656 4552 4522 5022 4725 4794 5002 5021 5086 5264 5221 5015 4693 4586 4900 5211 5151 5150 5028 5075 5110 5043 4923 4722 4750 4349 4153 4458
0 0 0 1 3 0 0 0 1 1 5 0 3 0 0 0 0 0 0 0 0 2 4 2 34 76 422 575 637 750 735 974 1107 1104 1251 1245 1466 1518 1477 1878 1856 1950 2127 2341 2365 2388 2779 2951 2693 2748 2845 2869 2788 3057 3212 3350 3339 3494 3818 4042 4275 4730 4990 4684 4599 4717 4794 4949 4984 5031 4948 4792 4820 4846 5007 5088 4920 4774 4448 4050 4235 4327 4555 4355 4037 4024
23 15 0 0 0 1 1 4 5 3 14 0 0 0 0 0 0 0 0 0 0 0 0 1 1 22 70 504 767 672 734 801 863 961 1100 1270 1196 1295 1489 1682 1792 1975 2110 2251 2288 2300 2553 2642 2658 2706 2735 2802 2971 3157 3328 3545 3435 3654 3645 3911 4130 4422 4599 4605 4422 4557 4601 4638 4620 4789 4799 4707 4555 4653 4816 4883 4847 4771 4659 4593 4452 4398 4396 4207 4135 4222
8 0 0 8 1 2 3 0 0 0 0 0 0 0 0 0 4 0 0 0 0 0 0 1 0 0 12 97 619 746 803 831 879 812 869 1151 1074 1155 1510 1790 1836 1960 2117 2291 2203 2093 2223 2248 2356 2486 2492 2632 2652 2710 2906 3161 3276 3406 3515 3792 4021 3850 4265 4412 4353 4756 4938 4890 4741 4534 4716 4645 4465 4402 4535 4661 4586 3942 4026 4197 3686 3637 3645 3568 3668 4335
0 0 0 0 3 5 13 13 3 0 0 0 0 0 14 1 0 0 0 0 0 0 0 0 33 0 0 0 218 743 755 886 877 886 846 943 1051 1051 1316 1636 1832 2010 2094 1831 1725 1891 1716 1810 2052 2156 2216 2234 2258 2364 2493 2273 2708 2629 2763 2823 3687 4410 4544 4440 4495 4442 4293 4436 4270 4278 3712 4075 4037 4027 4177 4128 3943 3979 4238 3686 3611 5252 5546 4446 4256 3873
0 0 0 6 17 4 7 6 14 8 4 7 1 0 0 0 0 0 0 0 0 0 0 0 0 0 0 27 2 338 859 1001 969 976 999 1076 1129 1143 1039 1403 1574 1688 1973 1846 1790 1810 1875 1810 1781 1656 1682 1686 1531 1720 1911 2139 2126 2442 2461 2776 3103 3099 3341 3537 4308 4460 4302 4527 4191 4244 4492 4087 4058 4519 4411 4056 4140 3958 3366 3610 4428 3290 3247 3364 3750 4024
Wind_Speed
nan nan nan nan nan nan nan nan nan nan nan nan nan nan nan nan nan nan nan nan nan nan nan nan nan nan nan nan nan nan nan nan nan nan nan 11 11 10 9 7 9 7 4 1 4 3 4 4 5 7 7 7 6 5 5 4 4 6 7 7 5 5 4 4 3 3 4 4 4 4 2 2 2 2 2 3 5 4 4 3 2 0 4 5 7 8
nan nan nan nan nan nan nan nan nan nan nan nan nan nan nan nan nan nan nan nan nan nan nan nan nan nan nan nan nan nan nan nan nan nan nan nan 10 10 9 7 6 8 6 2 3 4 5 3 4 6 8 6 6 5 6 4 4 6 6 6 7 6 4 4 4 4 5 5 6 5 4 3 2 1 2 2 4 4 3 2 2 1 4 6 7 8
nan nan nan nan nan nan nan nan nan nan nan nan nan nan nan nan nan nan nan nan nan nan nan nan nan nan nan nan nan nan nan nan nan nan nan nan 9 12 10 9 10 6 4 2 4 6 5 5 4 6 7 6 6 6 6 6 3 4 6 7 7 6 5 6 5 6 6 6 5 4 4 3 2 2 2 2 2 4 3 1 2 1 2 5 7 8
nan nan nan nan nan nan nan nan nan nan nan nan nan nan nan nan nan nan nan nan nan nan nan nan nan nan nan nan nan nan nan nan nan nan nan nan 10 14 15 13 11 4 3 4 4 6 7 5 5 6 7 7 8 8 7 6 4 4 6 6 5 6 6 7 7 7 5 5 4 4 4 4 5 3 2 2 2 3 4 2 1 1 2 5 7 9
nan nan nan nan nan nan nan nan nan nan nan nan nan nan nan nan nan nan nan nan nan nan nan nan nan nan nan nan nan nan nan nan nan nan nan nan 15 18 24 15 10 3 5 4 4 5 6 6 6 6 7 8 7 7 7 7 6 8 3 4 4 7 7 8 8 6 6 5 4 4 5 5 5 5 4 4 4 4 3 4 0 2 4 6 7 8
nan nan nan nan nan nan nan nan nan nan nan nan nan nan nan nan nan nan nan nan nan nan nan nan nan nan nan nan nan nan nan nan nan nan nan nan nan 20 21 17 13 8 1 3 6 8 7 6 8 7 6 6 7 8 8 8 7 8 8 6 7 9 9 8 6 5 6 6 5 5 5 6 6 7 6 4 3 2 1 4 2 3 4 5 6 6
nan nan nan nan nan nan nan nan nan nan nan nan nan nan nan nan nan nan nan nan nan nan nan nan nan nan nan nan nan nan nan nan nan nan nan nan 17 17 18 18 18 12 6 3 2 8 10 9 8 8 6 5 6 8 10 10 9 8 9 8 8 10 11 9 7 5 7 6 7 5 6 7 7 7 7 5 3 2 2 2 3 0 2 3 5 6
nan nan nan nan nan nan nan nan nan nan nan nan nan nan nan nan nan nan nan nan nan nan nan nan nan nan nan nan nan nan nan nan nan nan nan nan 19 14 16 17 15 12 8 6 6 9 11 11 10 9 7 5 6 10 10 10 10 8 10 9 9 11 10 9 8 5 6 7 8 7 8 9 9 7 6 3 2 3 5 3 3 2 1 2 4 5
nan nan nan nan nan nan nan nan nan nan nan nan nan nan nan nan nan nan nan nan nan nan nan nan nan nan nan nan nan nan nan nan nan 18 18 19 23 15 11 12 16 12 8 8 7 9 10 12 12 11 9 7 7 9 9 10 11 11 11 11 10 10 9 8 5 5 5 9 10 9 9 9 9 7 6 5 4 5 5 5 4 4 1 1 4 5
nan nan nan nan nan nan nan nan nan nan nan nan nan nan nan nan nan nan nan nan nan nan nan nan nan nan nan nan nan nan nan nan nan nan 17 20 23 23 14 9 14 16 10 8 7 9 10 12 13 13 12 11 8 9 10 10 11 12 12 11 11 9 10 9 6 6 5 7 10 9 8 6 7 7 7 6 6 5 5 4 4 3 3 1 2 4
nan nan nan nan nan nan nan nan nan nan nan nan nan nan nan nan nan nan nan nan nan nan nan nan nan nan nan nan nan nan nan nan nan nan 23 24 22 22 12 6 13 15 11 8 8 8 9 11 12 14 14 12 10 10 11 11 11 12 12 11 11 10 10 9 7 6 5 6 7 7 5 4 4 4 6 6 6 6 4 3 2 1 1 1 1 3
nan nan nan nan nan nan nan nan nan nan nan nan nan nan nan nan nan nan nan nan nan nan nan nan nan nan nan nan nan nan nan nan nan nan 22 20 20 22 13 7 11 13 12 9 9 8 9 10 11 11 11 12 11 11 11 11 11 12 12 12 11 10 8 9 8 6 5 5 4 5 4 3 3 4 6 5 4 5 2 1 1 2 2 1 0 1
nan nan nan nan nan nan nan nan nan nan nan nan nan nan nan nan nan nan nan nan nan nan nan nan nan nan nan nan nan nan nan nan nan nan nan nan nan 20 14 12 14 13 12 11 11 11 10 9 9 10 10 10 10 10 11 11 11 11 11 12 11 9 7 8 7 5 4 4 5 5 5 4 5 4 5 6 5 5 4 3 2 3 4 3 2 1
nan nan nan nan nan nan nan nan nan nan nan nan nan nan nan nan nan nan nan nan nan nan nan nan nan nan nan nan nan nan nan nan nan nan nan nan nan 23 18 19 12 11 12 12 12 12 11 8 7 8 9 9 8 9 11 11 10 10 10 10 10 8 7 8 7 7 6 5 6 6 6 6 6 5 6 7 6 5 6 5 4 4 5 5 4 3
nan nan nan nan nan nan nan nan nan nan nan nan nan nan nan nan nan nan nan nan nan nan nan nan nan nan nan nan nan nan nan nan nan nan nan nan nan nan 22 21 nan 13 12 15 14 12 11 9 8 9 8 9 9 9 10 10 9 10 8 9 9 9 9 9 9 9 8 8 8 7 6 6 7 7 7 8 8 7 6 6 6 6 6 6 5 4
nan nan nan nan nan nan nan nan nan nan nan nan nan nan nan nan nan nan nan nan nan nan nan nan nan nan nan nan nan nan nan nan nan nan nan nan nan nan 25 21 15 13 15 18 14 11 11 11 10 10 9 9 9 9 9 10 10 8 8 9 10 10 11 11 11 11 10 10 10 8 7 6 7 9 9 10 9 9 7 7 7 8 7 7 7 7
nan nan nan nan nan nan nan nan nan nan nan nan nan nan nan nan nan nan nan nan nan nan nan nan nan nan nan nan nan nan nan nan nan nan nan nan nan nan nan 25 16 nan 19 21 12 8 12 12 11 10 10 10 11 10 7 8 9 9 10 11 11 12 13 13 13 12 12 11 10 8 7 7 7 8 9 10 10 10 9 8 8 8 9 9 9 9
nan nan nan nan nan nan nan nan nan nan nan nan nan nan nan nan nan nan nan nan nan nan nan nan nan nan nan nan nan nan nan nan nan nan nan nan nan nan nan nan nan nan nan 17 6 7 13 13 12 11 10 10 11 10 8 9 9 11 12 12 13 13 13 14 14 14 14 13 11 10 9 8 8 9 10 11 12 12 12 10 9 9 9 10 10 10
nan nan nan nan nan nan nan nan nan nan nan nan nan nan nan nan nan nan nan nan nan nan nan nan nan nan nan nan nan nan nan nan nan nan nan nan nan nan nan nan nan nan nan 17 11 10 14 14 13 11 10 10 10 11 10 11 12 12 12 12 14 14 14 15 15 15 14 14 13 13 11 12 11 10 11 12 13 14 13 13 13 12 12 12 12 12
nan nan nan nan nan nan nan nan nan nan nan nan nan nan nan nan nan nan nan nan nan nan nan nan nan nan nan nan nan nan nan nan nan nan nan nan nan nan nan nan nan nan 17 nan 15 13 9 12 13 12 11 11 11 12 12 13 13 12 12 14 13 14 15 15 15 15 15 15 15 15 14 14 13 13 13 13 13 13 14 15 15 15 15 15 15 14
nan nan nan nan nan nan nan nan nan nan nan nan nan nan nan nan nan nan nan nan nan nan nan nan nan nan nan nan nan nan nan nan nan nan nan nan nan nan nan nan nan nan nan nan 16 7 5 10 13 14 14 13 13 14 13 13 13 13 14 13 14 16 16 15 14 15 14 15 15 16 17 16 16 16 15 14 14 14 14 16 16 17 17 18 17 17
nan nan nan nan nan nan nan nan nan nan nan nan nan nan nan nan nan nan nan nan nan nan nan nan nan nan nan nan nan nan nan nan nan nan nan nan nan nan nan nan nan 25 18 15 14 6 8 11 13 16 16 14 13 13 13 13 14 14 13 14 15 15 14 15 14 14 15 15 15 16 17 17 17 16 15 15 15 15 16 17 17 18 19 19 19 19
nan nan nan nan nan nan nan nan nan nan nan nan nan nan nan nan nan nan nan nan nan nan nan nan nan nan nan nan nan nan nan nan nan nan nan nan nan nan nan nan nan nan 20 14 10 14 18 15 14 17 15 12 10 11 12 13 13 13 13 14 15 15 14 14 15 16 17 17 17 17 18 18 18 18 18 17 15 16 18 18 18 19 19 19 20 20
nan nan nan nan nan nan nan nan nan nan nan nan nan nan nan nan nan nan nan nan nan nan nan nan nan nan nan nan nan nan nan nan nan nan nan nan nan nan nan nan nan nan 21 nan 14 15 18 16 14 17 16 13 12 12 12 12 11 12 13 13 14 15 16 16 15 16 18 19 19 20 20 20 19 20 20 18 17 19 20 20 20 20 20 20 20 21
nan nan nan nan nan nan nan nan nan nan nan nan nan nan nan nan nan nan nan nan nan nan nan nan nan nan nan nan nan nan nan nan nan nan nan nan nan nan nan nan 41 40 34 26 19 18 21 16 15 17 18 17 16 13 12 11 11 11 12 13 12 14 16 17 17 17 18 19 21 21 21 21 21 20 20 20 20 21 22 22 21 21 22 22 21 22
nan nan nan nan nan nan nan nan nan nan nan nan nan nan nan nan nan nan nan nan nan nan nan nan nan nan nan nan nan nan nan nan nan nan nan nan nan nan nan 49 38 32 29 27 22 20 18 19 20 20 19 19 18 15 12 12 11 11 12 12 12 15 17 18 19 19 19 20 21 21 22 21 21 20 21 21 21 22 23 23 22 22 22 22 23 23
nan nan nan nan nan nan nan 51 nan nan nan nan nan nan nan nan nan nan nan nan nan nan nan nan nan nan nan nan nan nan nan nan nan nan nan nan nan nan 46 39 33 28 29 28 26 26 25 24 22 23 22 20 19 17 12 10 12 12 14 12 13 17 18 19 21 21 22 23 23 22 21 21 20 19 19 19 20 20 20 21 21 21 21 22 22 22
nan nan nan nan nan nan nan nan nan nan nan nan nan nan nan nan nan nan nan nan nan nan nan nan nan nan nan nan nan nan nan nan nan nan nan nan nan nan nan nan nan 29 30 31 30 27 26 26 26 26 25 23 21 20 17 14 12 13 14 14 15 16 18 19 21 22 23 24 24 22 20 19 19 19 19 19 20 20 19 20 20 19 19 21 20 20
nan nan nan nan nan nan nan nan nan nan nan nan nan nan nan nan nan nan nan nan nan nan nan nan nan nan nan nan nan nan nan nan nan nan nan nan nan nan nan nan nan nan 33 34 32 30 28 27 28 28 28 27 24 22 21 20 17 16 15 14 16 16 16 19 20 21 22 24 24 22 19 18 19 19 19 20 20 20 19 19 19 18 18 18 17 16
nan nan nan nan nan nan nan nan nan nan nan nan nan nan nan nan nan nan nan nan nan nan nan nan nan nan nan nan nan nan nan nan nan nan nan nan nan nan nan nan nan nan nan 40 33 34 32 30 31 31 31 30 27 25 24 24 23 20 18 17 16 16 17 19 19 19 19 20 22 23 22 21 20 20 20 20 20 19 19 19 20 19 18 16 15 15
nan nan nan nan nan nan nan nan nan nan nan nan nan nan nan nan nan nan nan nan nan nan nan nan nan nan nan nan nan nan nan nan nan nan nan nan nan nan nan nan nan nan nan nan 38 35 37 34 35 34 32 32 29 27 27 26 25 24 22 22 20 19 18 19 19 18 17 17 20 24 25 23 21 22 22 20 19 19 20 20 20 19 17 15 14 14
nan nan nan nan nan nan nan nan nan nan nan nan nan nan nan nan nan nan nan nan nan nan nan nan 41 36 nan nan nan nan nan nan nan nan nan nan nan nan nan nan nan nan nan nan nan nan 37 36 35 34 33 31 30 28 28 29 27 26 24 24 24 23 21 18 18 17 16 15 19 22 23 23 23 23 22 22 22 21 21 21 20 18 17 15 14 14
nan nan nan nan nan nan nan nan nan nan nan nan nan nan nan nan nan nan nan nan nan nan nan nan nan nan nan nan nan nan nan nan nan nan nan nan nan nan nan nan nan nan nan nan nan nan nan 31 32 34 35 33 32 30 26 27 28 27 27 27 27 26 22 19 18 18 17 16 17 19 20 22 22 22 22 23 24 23 22 21 20 18 16 15 14 14
nan nan nan nan nan nan nan nan nan nan nan nan nan nan nan nan nan nan nan nan nan nan nan nan nan nan nan nan nan nan nan nan nan nan nan nan nan nan nan nan nan nan nan nan nan nan nan nan 35 36 37 36 34 29 27 28 28 28 29 29 28 25 23 20 18 18 17 16 15 16 17 19 20 21 22 23 24 23 22 20 18 18 17 16 16 16
nan nan nan nan nan nan nan nan nan nan nan nan nan nan nan nan nan nan nan nan nan nan nan nan nan nan nan nan nan nan nan nan nan nan nan nan nan nan nan nan nan nan nan nan nan 35 39 37 37 33 33 32 33 32 30 29 29 31 31 30 27 26 24 21 18 16 17 16 14 15 15 17 18 19 20 21 21 21 19 18 17 18 18 17 17 17
nan nan nan nan nan nan nan nan nan nan nan nan nan nan nan nan nan nan nan nan nan nan nan nan nan nan nan nan nan nan nan nan nan 32 29 nan nan nan nan nan nan nan nan nan 35 31 30 31 32 30 31 33 32 30 28 27 29 30 30 30 28 27 25 21 17 13 15 16 15 14 14 15 17 17 18 18 19 19 18 18 18 18 18 17 17 17
nan nan nan nan nan nan nan nan nan nan nan nan nan nan nan nan nan nan nan nan nan nan nan nan nan nan nan nan nan nan 41 41 37 32 nan nan nan nan nan nan nan nan 35 35 33 33 32 27 24 24 25 24 24 25 25 26 27 27 29 29 29 29 25 21 16 12 13 14 14 13 13 13 15 15 16 17 17 17 18 18 18 18 19 18 18 18
nan nan nan nan nan nan nan nan nan nan nan nan nan nan nan nan nan nan nan nan nan nan nan nan 48 49 45 43 nan 45 45 40 nan nan nan nan 43 44 45 48 46 42 38 36 36 33 31 29 28 25 24 22 20 21 23 24 25 26 27 27 28 28 25 20 14 13 13 13 14 14 15 15 16 17 17 18 18 17 17 18 18 19 20 19 19 18
nan nan nan nan nan nan nan nan nan nan nan nan nan nan nan nan nan nan nan nan nan nan nan 47 nan nan nan nan 46 48 41 nan nan nan 47 46 48 47 47 44 42 41 38 36 35 33 34 32 30 27 22 19 17 18 19 20 22 22 23 23 24 27 25 19 15 14 14 15 16 17 17 18 18 19 19 19 18 19 19 19 19 19 20 20 20 20
nan nan nan nan nan nan nan nan nan nan nan nan nan nan nan nan nan nan nan nan 62 nan nan nan nan 52 53 54 53 46 41 nan nan 44 51 47 45 46 46 45 43 42 39 37 34 36 34 30 27 27 25 24 25 22 20 20 20 20 21 21 20 21 21 20 19 17 16 17 18 18 18 19 20 20 19 19 20 20 20 20 19 20 20 21 21 22
nan nan nan nan nan nan nan nan nan nan nan nan nan nan nan nan nan nan nan 69 69 nan 56 nan 57 58 59 56 54 50 48 48 49 51 48 47 43 45 46 45 43 42 40 39 39 38 33 30 30 31 29 30 28 26 25 24 21 20 21 21 21 18 20 23 22 22 20 19 18 19 19 20 19 20 20 20 21 21 20 20 20 21 21 22 23 24
nan nan nan nan nan nan nan nan nan nan nan nan nan nan nan nan nan nan nan nan 62 57 59 56 60 60 61 60 58 56 55 53 51 49 49 48 48 45 44 45 45 44 41 42 40 37 38 35 35 33 32 32 28 26 24 24 23 22 22 22 22 22 23 25 24 24 23 21 19 19 20 20 21 21 22 22 22 22 21 21 22 22 23 24 25 26
nan nan nan nan nan nan nan nan nan nan nan nan nan nan nan nan 67 nan nan nan nan nan nan nan nan 63 62 62 60 59 56 53 53 52 50 48 48 45 44 44 45 44 44 44 40 43 41 38 38 37 36 34 34 32 30 25 25 24 24 25 26 27 26 25 26 25 25 24 21 21 21 23 23 24 25 25 26 26 25 26 26 26 26 27 29 30
nan nan nan nan nan nan nan nan nan nan nan nan nan nan nan nan nan nan nan nan nan nan nan 64 nan 65 64 62 61 60 58 54 51 51 50 48 47 46 45 44 44 44 44 44 46 46 44 41 40 39 39 39 37 35 35 30 29 29 28 28 30 29 28 27 28 28 28 27 25 23 22 23 24 26 27 28 30 30 30 30 31 31 32 33 33 34
nan nan 62 nan 75 nan nan nan nan nan nan nan nan nan nan nan nan nan nan nan nan nan nan 65 65 65 64 64 61 60 57 56 55 53 49 48 47 46 46 46 45 45 44 45 46 46 43 43 43 42 41 41 40 39 39 37 35 35 34 37 35 36 35 32 31 31 30 30 28 26 25 25 26 27 29 31 32 34 34 34 35 35 36 36 36 36
nan nan nan nan nan nan nan nan nan nan nan nan nan nan nan nan nan nan nan nan nan nan nan nan 66 65 65 65 63 59 59 57 55 52 50 48 48 46 44 44 43 42 42 41 42 45 43 42 44 44 43 41 42 42 41 41 39 38 40 38 35 33 34 35 35 33 31 32 31 30 29 28 29 29 30 33 35 36 36 36 37 38 38 38 38 39
nan nan nan nan nan nan nan nan nan nan nan nan nan nan nan nan nan nan nan nan nan nan nan nan nan nan 66 66 63 61 58 57 55 53 51 49 49 49 45 45 44 44 44 43 45 43 43 46 45 45 44 44 43 42 42 41 40 39 38 36 35 35 35 35 34 35 34 33 33 34 33 32 33 33 34 34 36 37 38 38 39 40 39 39 38 38
nan nan nan nan nan nan nan nan nan nan nan nan nan nan nan nan nan nan nan nan nan nan nan nan nan nan nan 63 62 59 57 55 54 52 50 49 47 46 45 44 43 43 42 41 42 42 43 42 43 44 44 45 45 45 45 44 43 41 39 39 38 38 38 37 36 36 36 36 36 36 36 36 37 37 37 38 38 40 41 41 41 41 41 40 39 38
nan nan nan nan nan nan nan nan nan nan nan nan nan nan nan nan nan nan nan nan nan nan nan nan nan nan nan nan 62 58 56 55 54 53 51 52 48 46 45 45 43 43 45 45 45 43 43 42 42 44 45 45 45 44 44 44 44 43 43 42 41 39 39 40 39 38 39 40 39 39 39 39 40 38 38 39 39 39 40 40 40 39 39 38 39 38
nan nan nan nan nan nan nan nan nan nan nan nan nan nan nan nan nan nan nan nan nan nan nan nan nan nan nan nan 62 58 54 52 52 52 51 50 50 51 49 47 45 43 43 45 45 44 43 42 42 43 44 43 42 43 44 45 44 44 44 43 42 41 42 40 40 41 41 40 41 42 42 40 41 41 40 40 40 41 42 45 46 45 44 45 57 58
nan nan nan nan nan nan nan nan nan nan nan nan nan nan nan nan nan nan nan nan nan nan nan nan nan nan nan nan nan 57 52 51 51 51 50 49 49 50 50 51 49 49 48 47 45 45 45 44 44 43 43 41 40 42 42 43 44 44 44 44 44 44 43 41 41 41 44 48 48 48 45 44 45 47 45 44 44 43 43 43 46 38 38 43 51 54
Wind_Direction
nan nan nan nan nan nan nan nan nan nan nan nan nan nan nan nan nan nan nan nan nan nan nan nan nan nan nan nan nan nan nan nan nan nan nan 280 293 305 318 337 331 330 30 6 286 305 307 290 264 235 230 234 242 216 232 231 215 199 183 206 215 184 203 196 184 187 184 185 192 185 171 180 183 150 147 134 136 133 123 120 113 60 77 58 47 44
nan nan nan nan nan nan nan nan nan nan nan nan nan nan nan nan nan nan nan nan nan nan nan nan nan nan nan nan nan nan nan nan nan nan nan nan 293 294 307 318 315 272 142 53 284 316 308 261 282 237 228 238 260 223 233 234 216 203 186 203 216 193 211 221 210 199 195 193 191 196 176 176 164 176 160 135 131 126 139 155 144 34 65 52 45 41
nan nan nan nan nan nan nan nan nan nan nan nan nan nan nan nan nan nan nan nan nan nan nan nan nan nan nan nan nan nan nan nan nan nan nan nan 276 279 286 295 274 275 87 54 312 318 303 313 294 235 232 232 249 241 233 236 226 196 189 201 214 202 211 223 223 206 203 203 190 185 180 138 155 140 147 144 138 138 137 150 148 106 55 50 38 35
nan nan nan nan nan nan nan nan nan nan nan nan nan nan nan nan nan nan nan nan nan nan nan nan nan nan nan nan nan nan nan nan nan nan nan nan 269 271 280 279 279 324 8 44 322 321 312 311 280 245 238 236 234 230 230 240 243 194 184 200 211 212 215 220 224 215 210 205 197 171 166 148 142 171 171 159 174 164 149 146 214 125 56 42 38 28
nan nan nan nan nan nan nan nan nan nan nan nan nan nan nan nan nan nan nan nan nan nan nan nan nan nan nan nan nan nan nan nan nan nan nan nan 268 269 277 279 274 298 30 8 329 308 306 312 302 274 248 245 236 234 230 236 233 202 203 207 215 219 219 216 227 230 214 211 195 180 167 161 155 173 190 191 190 187 174 136 128 44 39 36 36 29
nan nan nan nan nan nan nan nan nan nan nan nan nan nan nan nan nan nan nan nan nan nan nan nan nan nan nan nan nan nan nan nan nan nan nan nan nan 275 289 299 299 319 39 77 333 323 315 308 285 279 270 265 247 241 232 231 232 220 216 216 223 219 217 216 231 235 217 206 199 195 186 185 184 179 202 202 188 175 141 91 77 28 32 28 34 30
nan nan nan nan nan nan nan nan nan nan nan nan nan nan nan nan nan nan nan nan nan nan nan nan nan nan nan nan nan nan nan nan nan nan nan nan 257 269 281 293 304 316 312 108 355 315 312 310 309 306 290 276 265 253 241 234 234 234 230 228 231 222 217 218 222 246 216 208 198 198 192 194 197 196 199 200 175 160 171 146 112 262 341 24 33 34
nan nan nan nan nan nan nan nan nan nan nan nan nan nan nan nan nan nan nan nan nan nan nan nan nan nan nan nan nan nan nan nan nan nan nan nan 264 264 276 289 292 292 308 346 3 325 319 315 314 313 302 272 261 258 254 248 244 248 242 241 237 223 219 218 221 233 219 208 207 207 199 196 199 203 202 209 184 177 183 187 145 175 244 5 43 45
nan nan nan nan nan nan nan nan nan nan nan nan nan nan nan nan nan nan nan nan nan nan nan nan nan nan nan nan nan nan nan nan nan 242 240 243 262 254 266 277 284 291 318 344 326 318 316 313 311 299 291 281 263 256 257 254 249 250 245 245 242 236 228 225 231 222 218 206 210 207 204 202 201 196 199 209 206 195 188 178 186 172 197 335 37 54
nan nan nan nan nan nan nan nan nan nan nan nan nan nan nan nan nan nan nan nan nan nan nan nan nan nan nan nan nan nan nan nan nan nan 243 250 251 249 220 236 275 291 305 316 317 312 313 311 304 302 292 279 264 260 260 257 254 258 251 254 259 256 240 232 231 214 215 213 209 209 205 213 211 206 204 207 222 211 203 182 183 183 171 105 46 50
nan nan nan nan nan nan nan nan nan nan nan nan nan nan nan nan nan nan nan nan nan nan nan nan nan nan nan nan nan nan nan nan nan nan 245 248 251 256 235 204 252 267 276 276 292 304 309 306 299 291 296 297 284 263 267 263 262 265 264 265 268 265 243 237 231 221 219 217 211 209 215 222 224 222 219 216 217 228 213 188 171 190 162 141 8 38
nan nan nan nan nan nan nan nan nan nan nan nan nan nan nan nan nan nan nan nan nan nan nan nan nan nan nan nan nan nan nan nan nan nan 258 253 258 259 254 203 236 253 261 262 268 281 291 287 294 295 295 292 293 282 279 271 268 270 269 268 273 267 254 236 232 233 225 222 223 219 229 232 227 229 224 234 225 236 236 210 188 217 241 233 156 352
nan nan nan nan nan nan nan nan nan nan nan nan nan nan nan nan nan nan nan nan nan nan nan nan nan nan nan nan nan nan nan nan nan nan nan nan nan 277 272 234 203 228 254 255 259 264 273 288 303 311 299 288 291 282 289 283 274 274 276 284 283 275 265 241 244 255 252 243 238 235 235 228 223 226 233 234 237 241 241 239 241 258 261 263 260 318
nan nan nan nan nan nan nan nan nan nan nan nan nan nan nan nan nan nan nan nan nan nan nan nan nan nan nan nan nan nan nan nan nan nan nan nan nan 273 255 249 220 217 238 248 256 260 266 276 287 294 294 293 290 296 289 285 270 264 266 282 289 283 270 252 251 258 262 264 254 248 238 233 233 238 244 243 246 254 246 249 255 268 275 278 297 314
nan nan nan nan nan nan nan nan nan nan nan nan nan nan nan nan nan nan nan nan nan nan nan nan nan nan nan nan nan nan nan nan nan nan nan nan nan nan 258 247 nan 207 233 243 249 258 269 281 287 280 289 290 289 296 286 274 266 261 263 273 283 277 275 269 270 263 275 264 267 257 248 242 242 248 250 252 252 258 260 256 264 264 271 281 289 305
nan nan nan nan nan nan nan nan nan nan nan nan nan nan nan nan nan nan nan nan nan nan nan nan nan nan nan nan nan nan nan nan nan nan nan nan nan nan 269 263 242 226 243 244 239 254 266 271 276 268 271 282 279 289 277 286 275 269 259 268 274 276 275 271 270 267 271 265 257 265 266 264 258 251 255 257 261 262 265 260 258 267 272 271 278 287
nan nan nan nan nan nan nan nan nan nan nan nan nan nan nan nan nan nan nan nan nan nan nan nan nan nan nan nan nan nan nan nan nan nan nan nan nan nan nan 268 265 nan 252 243 213 237 268 266 273 272 281 280 283 284 287 280 282 279 264 263 269 268 267 272 273 270 266 266 264 275 276 271 271 276 281 276 287 293 283 275 270 268 278 282 279 284
nan nan nan nan nan nan nan nan nan nan nan nan nan nan nan nan nan nan nan nan nan nan nan nan nan nan nan nan nan nan nan nan nan nan nan nan nan nan nan nan nan nan nan 264 227 250 269 269 278 275 269 286 295 303 296 281 272 264 262 271 275 274 279 279 279 277 272 275 279 280 290 292 290 286 288 282 287 291 291 293 286 285 284 291 292 292
nan nan nan nan nan nan nan nan nan nan nan nan nan nan nan nan nan nan nan nan nan nan nan nan nan nan nan nan nan nan nan nan nan nan nan nan nan nan nan nan nan nan nan 260 247 232 256 265 275 280 289 298 294 285 286 276 269 261 264 270 282 289 290 289 278 282 275 283 272 275 294 305 300 293 291 289 289 294 303 310 307 309 304 300 300 296
nan nan nan nan nan nan nan nan nan nan nan nan nan nan nan nan nan nan nan nan nan nan nan nan nan nan nan nan nan nan nan nan nan nan nan nan nan nan nan nan nan nan 259 nan 238 224 243 273 285 292 286 284 285 281 276 285 278 288 282 279 281 284 283 286 289 285 289 296 292 291 294 300 301 301 299 297 299 301 309 312 312 314 314 309 302 303
nan nan nan nan nan nan nan nan nan nan nan nan nan nan nan nan nan nan nan nan nan nan nan nan nan nan nan nan nan nan nan nan nan nan nan nan nan nan nan nan nan nan nan nan 246 213 250 275 279 281 278 272 272 269 267 276 290 291 286 292 296 293 298 300 297 296 292 290 293 297 303 307 306 310 303 307 308 308 307 306 309 310 309 305 307 305
nan nan nan nan nan nan nan nan nan nan nan nan nan nan nan nan nan nan nan nan nan nan nan nan nan nan nan nan nan nan nan nan nan nan nan nan nan nan nan nan nan 261 263 241 214 224 238 252 263 268 265 260 270 279 288 280 279 287 298 298 298 296 300 308 302 296 291 290 293 304 304 305 302 304 302 310 310 313 311 311 312 313 310 315 313 311
nan nan nan nan nan nan nan nan nan nan nan nan nan nan nan nan nan nan nan nan nan nan nan nan nan nan nan nan nan nan nan nan nan nan nan nan nan nan nan nan nan nan 276 263 246 240 217 206 243 264 270 270 270 273 279 274 278 288 300 299 294 301 311 312 311 304 294 294 296 304 300 300 302 304 313 318 315 321 320 316 317 316 319 319 315 315
nan nan nan nan nan nan nan nan nan nan nan nan nan nan nan nan nan nan nan nan nan nan nan nan nan nan nan nan nan nan nan nan nan nan nan nan nan nan nan nan nan nan 258 nan 232 239 256 235 245 255 269 263 251 250 269 272 273 277 281 291 296 313 317 310 302 301 301 303 307 307 302 304 306 316 320 324 320 325 326 322 321 321 324 325 320 319
nan nan nan nan nan nan nan nan nan nan nan nan nan nan nan nan nan nan nan nan nan nan nan nan nan nan nan nan nan nan nan nan nan nan nan nan nan nan nan nan 233 237 237 233 213 225 249 263 263 263 273 272 271 268 259 267 269 270 270 276 289 295 301 294 290 296 303 307 309 306 305 312 313 320 325 326 322 329 329 330 328 325 328 326 328 326
nan nan nan nan nan nan nan nan nan nan nan nan nan nan nan nan nan nan nan nan nan nan nan nan nan nan nan nan nan nan nan nan nan nan nan nan nan nan nan 231 233 231 228 227 225 229 239 242 252 259 264 267 282 280 258 248 260 263 261 270 272 274 281 291 291 297 301 302 305 305 315 315 318 326 328 325 324 328 329 330 332 330 326 329 331 330
nan nan nan nan nan nan nan 217 nan nan nan nan nan nan nan nan nan nan nan nan nan nan nan nan nan nan nan nan nan nan nan nan nan nan nan nan nan nan 233 239 242 235 230 227 226 226 228 232 243 253 256 260 271 278 270 258 259 264 263 272 277 271 280 289 292 295 302 304 306 304 314 318 319 317 319 316 317 316 322 328 331 333 329 326 332 332
nan nan nan nan nan nan nan nan nan nan nan nan nan nan nan nan nan nan nan nan nan nan nan nan nan nan nan nan nan nan nan nan nan nan nan nan nan nan nan nan nan 246 236 232 230 230 229 231 236 245 252 255 258 267 271 269 262 261 262 270 274 279 283 284 292 295 296 295 296 299 308 311 307 306 305 303 303 309 318 320 322 324 320 319 329 332
nan nan nan nan nan nan nan nan nan nan nan nan nan nan nan nan nan nan nan nan nan nan nan nan nan nan nan nan nan nan nan nan nan nan nan nan nan nan nan nan nan nan 241 233 233 233 235 234 234 239 246 250 252 259 268 269 266 260 259 261 268 279 287 283 286 290 292 287 288 289 289 285 287 290 293 296 297 306 312 311 309 308 311 313 320 319
nan nan nan nan nan nan nan nan nan nan nan nan nan nan nan nan nan nan nan nan nan nan nan nan nan nan nan nan nan nan nan nan nan nan nan nan nan nan nan nan nan nan nan 238 226 231 233 234 237 237 242 246 248 252 261 267 268 274 276 274 278 280 284 280 287 289 290 287 282 278 276 273 275 280 286 290 295 301 303 302 302 304 308 313 316 314
nan nan nan nan nan nan nan nan nan nan nan nan nan nan nan nan nan nan nan nan nan nan nan nan nan nan nan nan nan nan nan nan nan nan nan nan nan nan nan nan nan nan nan nan 230 229 233 235 235 237 241 246 248 250 251 257 266 271 280 282 288 290 288 291 287 297 299 291 280 274 275 277 279 280 285 289 291 293 295 296 296 298 303 307 311 310
nan nan nan nan nan nan nan nan nan nan nan nan nan nan nan nan nan nan nan nan nan nan nan nan 235 230 nan nan nan nan nan nan nan nan nan nan nan nan nan nan nan nan nan nan nan nan 240 239 239 240 244 247 250 252 251 253 263 270 276 280 286 290 293 294 301 311 304 299 279 275 281 283 284 284 288 289 294 297 295 292 293 296 302 309 314 300
nan nan nan nan nan nan nan nan nan nan nan nan nan nan nan nan nan nan nan nan nan nan nan nan nan nan nan nan nan nan nan nan nan nan nan nan nan nan nan nan nan nan nan nan nan nan nan 239 244 246 242 243 249 253 256 259 262 266 271 271 276 280 293 303 306 302 298 301 295 290 287 286 288 290 290 293 296 295 292 294 297 301 308 315 306 297
nan nan nan nan nan nan nan nan nan nan nan nan nan nan nan nan nan nan nan nan nan nan nan nan nan nan nan nan nan nan nan nan nan nan nan nan nan nan nan nan nan nan nan nan nan nan nan nan 232 235 238 240 243 245 248 254 257 261 266 270 275 283 286 292 296 294 296 294 295 291 289 288 291 293 294 293 295 298 300 302 305 307 307 303 299 300
nan nan nan nan nan nan nan nan nan nan nan nan nan nan nan nan nan nan nan nan nan nan nan nan nan nan nan nan nan nan nan nan nan nan nan nan nan nan nan nan nan nan nan nan nan 228 232 235 237 240 241 239 237 238 237 243 252 257 262 268 274 277 277 285 287 280 287 292 291 286 288 291 293 292 292 293 296 301 307 310 304 305 302 301 300 300
nan nan nan nan nan nan nan nan nan nan nan nan nan nan nan nan nan nan nan nan nan nan nan nan nan nan nan nan nan nan nan nan nan 202 204 nan nan nan nan nan nan nan nan nan 222 224 222 224 227 227 229 231 234 237 240 239 244 254 260 266 271 275 280 284 284 287 285 294 301 301 297 295 292 290 293 297 301 310 315 310 304 299 292 289 291 290
nan nan nan nan nan nan nan nan nan nan nan nan nan nan nan nan nan nan nan nan nan nan nan nan nan nan nan nan nan nan 208 207 203 200 nan nan nan nan nan nan nan nan 215 218 219 218 220 218 217 219 223 228 229 232 234 235 239 245 254 261 266 269 279 285 288 298 296 301 310 311 305 298 296 298 302 302 307 316 317 309 300 292 288 294 295 296
nan nan nan nan nan nan nan nan nan nan nan nan nan nan nan nan nan nan nan nan nan nan nan nan 215 217 213 212 nan 213 212 207 nan nan nan nan 210 217 219 217 217 222 220 218 217 215 215 218 218 218 217 216 220 223 226 228 232 240 246 255 262 269 274 283 297 300 296 299 301 303 304 303 302 302 304 305 313 314 307 301 294 293 290 294 297 300
nan nan nan nan nan nan nan nan nan nan nan nan nan nan nan nan nan nan nan nan nan nan nan 217 nan nan nan nan 213 217 211 nan nan nan 218 212 209 212 217 220 220 221 221 219 214 212 214 215 213 209 206 207 210 219 229 230 227 233 245 248 253 259 265 274 279 282 287 289 288 291 294 296 298 300 303 304 303 296 296 297 292 288 287 291 293 296
nan nan nan nan nan nan nan nan nan nan nan nan nan nan nan nan nan nan nan nan 230 nan nan nan nan 215 215 214 215 213 210 nan nan 217 212 207 205 210 214 218 219 221 221 220 219 221 217 213 214 216 213 216 222 227 230 237 237 235 242 248 248 252 258 261 262 263 267 272 275 277 282 286 290 295 297 297 290 287 290 289 289 293 296 297 296 295
nan nan nan nan nan nan nan nan nan nan nan nan nan nan nan nan nan nan nan 229 223 nan 221 nan 213 214 214 213 215 214 215 211 208 208 206 204 204 210 211 212 216 219 221 221 223 221 221 221 226 225 220 222 223 224 224 228 240 242 243 248 248 246 248 251 251 252 254 260 270 274 278 279 285 290 288 287 286 289 290 289 291 293 296 300 297 295
nan nan nan nan nan nan nan nan nan nan nan nan nan nan nan nan nan nan nan nan 218 217 221 217 213 212 212 213 214 215 212 208 206 207 207 205 205 206 208 210 212 215 217 223 222 224 225 223 228 229 228 228 226 230 234 232 236 240 245 248 248 246 242 248 250 248 250 254 262 270 275 278 280 285 284 285 287 289 290 287 288 289 293 292 290 293
nan nan nan nan nan nan nan nan nan nan nan nan nan nan nan nan 226 nan nan nan nan nan nan nan nan 215 212 213 213 214 212 209 208 209 209 207 206 205 207 211 212 214 217 219 221 225 225 225 227 228 228 228 228 226 227 239 242 243 245 249 247 246 248 248 251 250 249 250 255 260 268 274 281 281 281 285 290 291 291 289 288 288 288 288 288 290
nan nan nan nan nan nan nan nan nan nan nan nan nan nan nan nan nan nan nan nan nan nan nan 217 nan 216 214 213 213 213 212 211 212 212 212 211 210 209 210 213 214 215 216 218 221 223 223 226 228 230 230 230 229 229 227 230 248 247 248 250 247 247 251 252 251 252 251 249 251 255 259 268 276 279 280 285 287 288 289 290 289 288 289 290 290 289
nan nan 218 nan 219 nan nan nan nan nan nan nan nan nan nan nan nan nan nan nan nan nan nan 219 217 215 214 212 212 212 213 214 214 214 213 213 213 213 212 212 212 213 213 216 219 221 222 226 226 228 230 230 230 231 230 232 244 251 250 246 244 244 246 254 256 255 254 253 252 252 254 258 264 271 274 276 280 282 284 286 286 286 287 288 290 289
nan nan nan nan nan nan nan nan nan nan nan nan nan nan nan nan nan nan nan nan nan nan nan nan 216 216 216 215 213 213 214 215 214 214 214 214 214 215 214 213 213 214 214 216 221 224 222 226 228 226 227 231 233 234 232 234 238 245 241 244 245 247 249 253 256 257 256 255 252 253 253 255 259 263 266 268 271 274 275 277 278 279 281 284 285 284
nan nan nan nan nan nan nan nan nan nan nan nan nan nan nan nan nan nan nan nan nan nan nan nan nan nan 217 216 214 213 213 216 216 218 218 218 217 216 214 214 215 215 215 216 222 223 226 226 231 230 230 231 231 234 236 237 238 239 242 245 248 248 248 252 254 257 256 255 253 253 252 253 252 255 258 262 263 266 269 270 271 274 276 279 280 281
nan nan nan nan nan nan nan nan nan nan nan nan nan nan nan nan nan nan nan nan nan nan nan nan nan nan nan 219 218 215 212 216 220 221 221 220 220 219 218 217 218 219 220 220 221 224 228 231 232 235 234 234 233 234 235 236 237 238 240 242 244 248 250 251 254 257 258 258 256 255 255 255 254 254 255 258 260 262 265 267 270 272 275 277 278 278
nan nan nan nan nan nan nan nan nan nan nan nan nan nan nan nan nan nan nan nan nan nan nan nan nan nan nan nan 219 218 216 216 218 220 222 222 223 223 221 220 222 224 224 226 225 224 229 231 235 236 238 238 237 238 238 238 239 239 240 241 242 243 248 250 251 251 255 255 256 258 258 258 259 258 256 259 261 261 261 265 269 271 272 275 277 278
nan nan nan nan nan nan nan nan nan nan nan nan nan nan nan nan nan nan nan nan nan nan nan nan nan nan nan nan 219 221 220 220 220 222 223 225 225 225 223 223 225 230 232 231 230 231 231 233 235 238 239 240 240 240 240 240 241 240 241 241 244 246 248 249 250 250 252 254 256 257 258 257 261 262 261 261 263 264 266 261 254 258 260 264 262 259
nan nan nan nan nan nan nan nan nan nan nan nan nan nan nan nan nan nan nan nan nan nan nan nan nan nan nan nan nan 219 222 224 223 226 226 228 229 230 228 226 229 233 235 237 238 238 238 237 238 238 240 241 242 244 244 245 244 244 244 243 242 240 243 245 248 252 253 247 246 245 252 258 257 261 261 261 261 261 261 265 272 268 267 266 265 266